TimeEAT,TemperatureF,Dew PointF,Humidity,Sea Level PressureIn,VisibilityMPH,Wind Direction,Wind SpeedMPH,Gust SpeedMPH,PrecipitationIn,Events,Conditions,WindDirDegrees,DateUTC
1:00 AM,78.8,68.0,69,29.77,-9999.0,South,9.2,-,N/A,,Clear,170,2012-10-30 22:00:00
2:00 AM,78.8,69.8,74,29.77,6.2,South,9.2,-,N/A,,Partly Cloudy,170,2012-10-30 23:00:00
3:00 AM,77,70,74,29.78,19,South,6.9,,,,Scattered Clouds,180,2012-10-31 00:00:00
4:00 AM,77.0,71.6,83,29.77,6.2,South,6.9,-,N/A,,Mostly Cloudy,180,2012-10-31 01:00:00
5:00 AM,77.0,71.6,83,29.80,6.2,South,6.9,-,N/A,,Partly Cloudy,170,2012-10-31 02:00:00
7:00 AM,77.0,71.6,83,29.83,6.2,South,6.9,-,N/A,,Partly Cloudy,170,2012-10-31 04:00:00
8:00 AM,80.6,71.6,74,29.86,6.2,South,6.9,-,N/A,,Mostly Cloudy,170,2012-10-31 05:00:00
9:00 AM,81,70,61,29.83,25,SSE,6.9,,,,Mostly Cloudy,160,2012-10-31 06:00:00
10:00 AM,86.0,68.0,55,29.83,6.2,SSW,5.8,-,N/A,,Scattered Clouds,210,2012-10-31 07:00:00
11:00 AM,87.8,66.2,49,29.83,6.2,SE,5.8,-,N/A,,Scattered Clouds,140,2012-10-31 08:00:00
1:00 PM,93.2,66.2,41,29.77,6.2,SE,3.5,-,N/A,,Scattered Clouds,140,2012-10-31 10:00:00
2:00 PM,95.0,66.2,39,29.74,6.2,Calm,Calm,-,N/A,,Scattered Clouds,0,2012-10-31 11:00:00
3:00 PM,95,67,30,29.69,25,Calm,Calm,,,,Partly Cloudy,,2012-10-31 12:00:00
4:00 PM,96.8,64.4,34,29.68,6.2,SE,4.6,-,N/A,,Scattered Clouds,140,2012-10-31 13:00:00
5:00 PM,96.8,64.4,34,29.68,6.2,SE,4.6,-,N/A,,Scattered Clouds,140,2012-10-31 14:00:00
7:00 PM,93.2,69.8,46,29.71,6.2,Calm,Calm,-,N/A,,Scattered Clouds,0,2012-10-31 16:00:00
8:00 PM,91.4,66.2,43,29.71,-9999.0,North,-9999.0,-,N/A,,Scattered Clouds,0,2012-10-31 17:00:00
9:00 PM,91,65,32,29.73,19,Calm,Calm,,,,Partly Cloudy,,2012-10-31 18:00:00
10:00 PM,87.8,64.4,46,29.77,6.2,SSE,13.8,-,N/A,,Scattered Clouds,160,2012-10-31 19:00:00
11:00 PM,84.2,66.2,55,29.80,6.2,SSE,11.5,-,N/A,,Partly Cloudy,160,2012-10-31 20:00:00